Location: Holkham
(52.9500°N, 0.8167°E)
Time: 19:16:15
(UTC+00:00)

Cosmos 1536 - Pass Details

Date: 19 May 2025
Orbit: 494 x 518 km, 82.5° (Epoch: 22 June)

Event Time Altitude Azimuth Distance (km) Brightness Sun altitude
Rises 21:30:16 0° 352° (N) 2,647 7.6 -10.8°
Reaches altitude 10° 21:32:29 10° 358° (N) 1,751 6.4 -11.0°
Maximum altitude 21:36:13 49° 75° (ENE) 665 3.1 -11.3°
Enters shadow 21:38:50 18° 145° (SE) 1,310 4.1 -11.5°
